Wind_Speed
11 7 4 4 5 6 7 7 8 10 12 13 14 15 17 18 19 20 21 22 22 23 24 24 26 28 29 29 28 26 24 20 16 17 14 10 10 16 24 26 24 25 27 22 21 21 17
11 8 6 4 5 6 7 7 7 8 9 10 10 12 13 14 15 15 15 16 16 17 17 19 22 26 29 33 34 32 31 27 21 20 17 14 10 9 20 25 25 26 21 19 19 20 19
11 9 7 5 6 6 7 7 8 8 9 10 9 8 8 8 8 9 9 10 11 11 12 14 16 18 21 25 29 34 36 33 27 24 21 17 14 9 3 24 27 25 22 16 20 21 14
11 11 8 5 5 6 7 7 7 6 5 6 8 8 8 9 10 11 11 12 12 11 12 12 14 15 15 16 19 25 30 36 33 29 27 22 17 14 14 18 25 27 23 18 22 17 13
12 11 7 5 6 6 7 7 4 4 5 6 9 9 9 11 12 13 13 13 14 13 13 15 17 16 16 16 16 18 23 29 32 33 31 26 21 17 10 7 11 27 31 25 26 26 26
13 10 7 5 5 6 6 3 4 5 6 9 9 9 8 9 10 12 13 12 11 11 13 14 15 15 15 16 16 16 18 22 26 31 33 31 26 23 18 24 34 34 40 29 24 26 29
13 10 7 5 4 3 1 2 3 4 9 6 8 9 7 7 11 14 15 15 15 16 16 15 13 12 13 14 15 16 17 17 21 28 31 33 31 28 27 28 26 39 45 31 32 26 24
12 9 7 4 2 1 1 2 5 8 4 7 6 7 10 13 11 13 15 15 15 18 17 14 13 13 14 15 17 17 16 14 16 24 29 33 36 34 32 31 33 31 42 44 35 33 27
10 9 6 4 3 2 3 6 2 5 5 7 5 10 10 13 12 12 13 14 15 16 16 17 16 18 19 17 19 18 19 16 13 19 27 32 35 39 36 34 34 31 33 44 42 40 36
12 8 6 6 4 2 2 5 4 3 2 7 10 13 13 13 12 11 12 14 15 16 16 17 17 19 20 22 23 21 17 17 14 14 23 30 34 35 38 37 34 34 31 36 52 39 31
12 8 8 7 4 6 5 2 2 2 5 10 13 14 14 13 14 16 16 16 17 18 19 18 17 19 20 23 26 24 15 15 16 14 17 26 31 34 35 38 37 33 35 33 42 49 50
10 9 8 6 6 5 5 4 6 8 8 11 14 14 14 16 16 18 18 19 19 21 20 20 20 19 19 23 25 28 21 15 16 17 14 20 29 33 34 37 40 38 37 36 38 47 55
10 9 8 7 6 5 5 6 6 9 13 12 12 14 16 18 19 19 20 18 20 19 20 22 22 21 20 21 24 27 27 22 18 19 19 16 23 30 33 35 38 39 39 37 40 41 43
11 8 10 13 4 5 7 8 9 10 12 15 16 19 20 20 21 20 19 19 20 20 21 23 24 26 24 22 26 26 27 28 21 19 22 21 19 27 32 35 36 38 39 39 42 43 39
9 10 10 11 8 4 5 8 11 15 17 21 23 21 22 24 24 22 21 22 23 22 22 22 26 28 26 25 26 26 27 26 29 23 21 24 21 23 31 33 37 39 41 39 40 42 42
11 9 9 7 5 7 9 11 15 20 23 24 25 26 27 28 28 25 24 25 26 26 26 23 22 25 25 28 29 26 27 30 30 30 23 25 25 24 26 32 36 39 38 40 39 40 42
9 7 6 6 9 13 17 20 21 23 26 28 29 30 30 29 29 26 26 28 29 29 28 28 28 28 29 27 29 30 29 30 33 33 31 23 29 28 24 27 34 37 41 40 40 41 40
6 6 6 11 15 18 21 23 26 28 31 32 33 33 31 30 29 29 31 32 33 33 34 34 33 33 31 33 32 33 32 31 33 36 35 31 25 29 29 23 29 36 40 41 42 43 43
8 9 12 15 17 21 25 30 34 35 34 33 33 33 31 32 34 33 34 35 37 38 39 40 42 39 37 37 36 38 36 35 33 39 40 36 29 30 29 30 27 33 38 41 42 45 45
12 15 17 20 24 28 31 35 37 39 38 37 35 34 35 37 39 39 40 41 42 43 44 46 47 46 45 42 42 43 42 40 36 36 41 40 36 27 33 32 30 27 34 40 42 44 46
17 21 24 27 30 34 37 39 42 43 42 40 39 39 40 43 45 46 47 48 50 51 53 52 51 51 47 44 46 43 43 42 35 38 42 42 41 28 40 36 33 31 31 38 42 45 46
24 27 30 33 36 39 42 44 44 44 43 43 44 46 48 50 52 54 54 56 57 58 59 59 55 54 50 49 48 39 39 41 38 39 39 43 43 35 38 43 36 28 30 31 38 43 45
29 33 37 40 43 45 44 43 43 44 47 50 52 55 56 56 58 61 61 64 64 63 62 59 54 53 52 49 46 46 41 43 42 37 41 45 44 41 31 47 42 34 29 32 32 38 42
37 41 44 46 45 45 46 48 51 52 54 57 59 61 63 65 64 66 65 64 64 60 58 57 53 53 53 51 51 50 49 48 44 42 39 47 46 44 32 45 46 32 38 31 33 34 39
46 45 44 44 47 51 53 54 56 58 61 64 66 68 67 67 65 61 60 60 60 58 58 57 56 56 56 53 53 51 44 41 41 41 39 46 48 45 37 36 45 46 40 35 35 35 36
44 45 48 52 54 55 58 60 64 66 67 67 66 63 62 62 59 62 64 64 64 61 60 58 57 57 58 57 52 48 37 39 41 43 44 48 51 47 38 35 42 51 51 49 40 40 34
48 53 55 56 58 62 64 67 67 69 64 62 62 62 64 66 65 68 70 67 67 66 65 62 62 61 60 54 50 43 36 39 42 45 48 46 51 45 41 38 41 50 53 43 49 44 39
54 57 59 63 66 67 70 70 69 64 63 64 66 72 74 77 77 77 76 73 70 67 65 63 60 59 59 55 48 42 36 38 41 45 45 48 53 51 46 44 41 53 49 48 44 46 44
59 63 67 70 71 73 72 67 66 67 69 73 78 82 84 84 79 80 76 72 67 65 65 63 60 57 54 50 45 39 37 41 47 49 53 57 54 55 52 46 47 53 55 52 47 43 46
Wind_Direction
301 276 271 277 278 276 272 274 273 274 273 277 279 279 280 280 278 275 273 273 272 271 270 269 267 265 261 257 256 251 251 251 255 259 263 267 248 222 217 219 214 211 207 221 225 244 243
291 264 258 265 273 278 288 297 299 301 299 296 291 291 291 291 290 287 285 283 281 280 278 272 266 261 259 257 254 251 251 247 244 253 251 254 256 228 224 213 208 209 215 229 229 227 243
275 257 248 257 277 291 297 305 304 308 317 321 325 326 328 326 322 319 316 310 305 299 288 279 280 280 273 268 264 257 250 248 242 243 245 244 244 226 178 230 206 204 200 185 237 229 242
263 250 246 259 279 289 307 317 324 331 357 32 35 17 358 347 340 336 333 326 317 306 297 298 297 299 293 288 275 265 255 249 243 238 241 239 234 229 215 217 207 200 189 208 222 209 234
258 249 245 260 283 301 318 333 2 40 33 20 6 357 345 331 327 325 323 317 316 317 309 302 301 304 298 300 299 281 262 251 244 238 236 235 231 225 211 135 284 210 181 205 207 208 217
259 249 242 262 292 312 324 359 31 11 9 356 1 46 38 30 39 25 13 9 2 343 325 314 310 305 302 294 303 307 286 260 245 240 234 231 226 222 200 187 188 205 201 210 202 215 220
261 242 237 264 299 307 356 10 354 354 345 23 65 65 42 14 9 12 5 7 15 15 6 357 348 333 325 315 306 300 303 280 249 237 233 227 225 220 208 187 210 222 205 195 199 209 216
254 226 232 261 237 141 353 335 319 332 49 86 55 38 18 14 355 355 353 2 354 2 4 1 360 355 343 331 313 306 299 301 261 238 232 227 225 222 218 212 216 216 207 198 194 198 206
236 208 222 208 174 146 293 297 325 103 73 72 359 358 6 353 4 4 354 353 352 352 359 2 360 355 354 349 347 317 297 294 286 248 232 228 224 224 222 219 221 219 213 212 209 217 212
208 204 196 185 171 276 155 132 118 104 29 347 346 341 343 344 346 356 353 343 337 335 344 348 353 0 355 350 348 333 309 289 286 269 239 231 228 227 225 223 223 222 219 215 215 207 213
196 199 185 179 234 169 179 161 257 294 320 331 330 333 342 349 341 338 338 336 325 321 324 327 331 345 353 354 352 345 318 289 278 278 255 235 230 227 226 226 223 223 225 218 219 214 208
195 187 186 208 188 209 220 265 286 320 334 328 326 337 331 332 330 326 327 324 318 316 318 326 322 317 337 354 354 360 345 314 279 267 266 248 233 232 228 225 226 226 227 226 221 220 219
186 192 207 184 193 209 273 295 302 311 318 332 331 328 331 327 322 318 319 313 312 317 318 322 326 314 312 330 340 355 0 346 310 271 264 256 242 232 229 228 226 226 229 228 227 228 225
191 207 191 187 222 251 296 304 311 314 313 322 326 321 322 320 315 311 311 310 309 313 312 315 317 316 313 316 323 335 349 355 334 302 265 258 249 237 231 230 227 227 228 229 230 231 230
193 190 198 215 255 297 318 319 325 323 319 315 315 313 311 312 312 308 307 307 309 308 309 308 309 310 311 304 309 320 320 336 345 328 286 259 252 243 236 231 228 227 226 228 230 230 230
189 201 229 253 286 308 322 321 319 315 315 311 306 303 303 305 310 309 305 305 310 314 316 311 312 303 305 302 304 307 305 314 322 336 319 267 251 248 239 234 230 229 230 231 231 232 233
218 239 261 289 298 311 318 316 313 309 306 305 303 301 302 305 307 304 304 306 306 309 312 312 312 310 309 306 304 305 303 306 308 312 326 299 254 249 244 238 232 231 232 232 232 231 233
243 260 291 298 301 302 305 308 310 311 309 308 306 305 303 303 303 301 302 304 303 305 306 308 309 307 302 302 302 302 302 300 304 304 306 316 275 247 244 246 236 232 233 234 232 231 232
262 283 290 292 293 299 305 308 309 309 307 305 304 301 300 300 301 300 303 303 301 303 303 303 305 305 302 296 293 294 293 292 296 301 297 300 302 250 240 242 244 236 233 234 233 234 233
267 280 286 293 297 300 303 305 307 307 306 304 302 300 297 298 299 298 300 299 300 302 301 301 301 300 299 291 290 288 283 282 284 289 293 290 295 263 239 237 243 247 240 236 234 233 234
285 289 294 294 295 298 302 304 305 305 304 302 301 300 299 298 300 299 298 297 298 298 298 299 299 298 298 292 296 290 279 274 275 281 283 284 285 282 235 232 235 242 245 239 235 233 233
289 290 294 296 297 298 300 301 302 300 299 299 300 299 299 298 298 298 298 297 297 297 297 297 298 297 294 296 297 291 278 273 265 258 273 273 276 282 245 234 227 237 247 246 240 238 236
288 291 294 295 296 298 297 298 298 297 297 297 298 300 299 298 297 297 297 297 298 297 296 297 296 294 293 297 293 286 280 274 268 254 263 266 265 277 255 235 224 228 240 242 240 238 238
291 293 294 294 295 297 298 298 297 299 299 298 297 298 297 297 297 298 297 297 297 296 294 292 293 293 293 294 291 289 282 271 261 254 247 258 260 269 260 235 229 226 237 240 241 237 235
293 294 294 296 296 296 297 298 300 299 300 299 298 297 297 297 297 296 298 298 298 296 293 294 293 292 293 293 294 292 282 261 250 244 241 250 255 263 256 242 226 223 221 239 236 240 238
293 292 293 295 296 297 299 300 302 301 301 299 299 299 299 300 298 296 297 295 294 293 292 292 292 292 294 295 296 294 274 246 241 231 234 243 253 259 253 250 230 229 235 229 229 237 236
291 292 294 297 298 299 300 301 300 301 299 301 299 297 298 298 295 294 294 292 292 289 287 287 289 291 291 292 294 288 264 244 236 232 231 242 250 254 249 248 237 228 231 231 233 232 237
289 292 293 296 298 299 300 301 301 299 299 300 299 299 297 296 296 295 293 290 285 283 284 285 288 288 288 290 291 284 258 245 235 230 235 243 248 251 248 244 239 232 230 231 231 233 233
292 294 296 298 299 300 301 300 298 298 298 298 300 299 299 296 294 292 289 285 281 280 281 282 285 285 285 287 286 276 257 243 233 231 232 239 243 246 247 242 237 229 230 231 229 230 231
Height
10920 10919 10918 10917 10917 10917 10917 10917 10916 10916 10916 10916 10915 10914 10913 10911 10910 10909 10909 10908 10907 10906 10906 10905 10904 10903 10903 10902 10903 10905 10905 10908 10910 10910 10912 10913 10915 10918 10920 10926 10931 10936 10940 10942 10945 10945 10944
10918 10917 10916 10916 10916 10915 10915 10915 10915 10914 10914 10913 10912 10911 10909 10908 10907 10905 10904 10903 10902 10901 10900 10899 10897 10896 10894 10895 10896 10898 10899 10902 10906 10906 10908 10911 10912 10916 10919 10923 10927 10931 10936 10938 10940 10941 10942
10917 10916 10915 10915 10915 10915 10914 10914 10914 10913 10912 10911 10910 10909 10907 10906 10904 10903 10902 10900 10899 10898 10896 10894 10893 10891 10890 10890 10889 10890 10892 10895 10900 10901 10904 10907 10910 10915 10925 10925 10923 10928 10933 10936 10935 10938 10941
10915 10914 10914 10914 10914 10914 10913 10913 10912 10912 10911 10910 10909 10908 10906 10905 10903 10902 10900 10898 10897 10895 10894 10892 10890 10888 10887 10885 10883 10883 10883 10886 10893 10896 10898 10903 10907 10912 10917 10921 10924 10927 10931 10932 10932 10935 10938
10912 10913 10913 10913 10913 10913 10912 10912 10911 10911 10910 10909 10908 10907 10905 10903 10901 10900 10898 10896 10894 10893 10891 10889 10886 10884 10883 10882 10880 10878 10877 10879 10885 10889 10892 10897 10902 10907 10917 10926 10935 10931 10927 10926 10925 10930 10934
10910 10911 10912 10912 10912 10912 10911 10911 10911 10910 10910 10909 10907 10906 10905 10903 10901 10899 10897 10895 10893 10891 10888 10886 10884 10882 10880 10879 10877 10874 10872 10873 10878 10881 10886 10890 10896 10901 10913 10913 10912 10911 10922 10922 10923 10927 10930
10908 10909 10910 10910 10910 10910 10910 10910 10910 10910 10910 10908 10908 10907 10905 10904 10902 10900 10897 10895 10893 10891 10888 10885 10882 10880 10878 10876 10873 10871 10869 10869 10871 10874 10878 10883 10888 10894 10900 10909 10910 10909 10914 10917 10918 10924 10925
10906 10907 10908 10909 10909 10910 10910 10910 10909 10909 10909 10908 10909 10908 10906 10904 10902 10900 10897 10894 10892 10890 10888 10884 10882 10879 10877 10874 10871 10868 10866 10865 10865 10868 10871 10875 10879 10885 10891 10897 10899 10901 10907 10911 10914 10920 10923
10903 10905 10906 10907 10908 10909 10909 10908 10908 10908 10908 10909 10908 10908 10906 10904 10901 10899 10897 10894 10891 10889 10887 10884 10881 10878 10875 10872 10868 10865 10862 10861 10860 10862 10864 10867 10871 10875 10882 10887 10891 10896 10900 10904 10911 10914 10920
10901 10903 10905 10906 10908 10908 10908 10908 10908 10908 10908 10908 10908 10906 10905 10903 10901 10898 10896 10893 10891 10888 10885 10883 10880 10877 10873 10869 10865 10861 10858 10857 10857 10857 10858 10861 10864 10869 10874 10879 10884 10889 10893 10898 10901 10913 10923
10900 10902 10904 10905 10907 10907 10908 10908 10908 10908 10908 10907 10906 10904 10903 10901 10899 10897 10895 10892 10888 10885 10883 10880 10877 10874 10870 10866 10863 10858 10854 10853 10853 10852 10853 10855 10858 10861 10866 10871 10876 10882 10885 10891 10893 10898 10903
10899 10901 10903 10904 10905 10906 10907 10907 10907 10906 10906 10905 10904 10902 10901 10899 10897 10894 10892 10889 10885 10882 10879 10877 10874 10871 10868 10864 10861 10856 10852 10849 10848 10848 10848 10849 10852 10854 10860 10864 10868 10874 10877 10882 10887 10890 10895
10897 10900 10901 10903 10904 10905 10905 10905 10905 10904 10903 10903 10902 10900 10897 10895 10893 10890 10887 10884 10882 10878 10875 10872 10869 10866 10863 10861 10858 10855 10851 10847 10845 10844 10844 10844 10846 10848 10852 10856 10861 10866 10869 10875 10878 10881 10885
10896 10898 10900 10901 10903 10904 10904 10902 10903 10903 10901 10899 10898 10896 10893 10891 10888 10886 10883 10880 10877 10874 10871 10868 10865 10860 10858 10857 10854 10852 10849 10846 10842 10839 10839 10840 10840 10842 10844 10848 10854 10858 10863 10867 10869 10873 10880
10896 10897 10899 10900 10900 10901 10902 10901 10900 10899 10898 10895 10893 10891 10889 10886 10883 10881 10879 10876 10872 10869 10866 10863 10860 10858 10855 10852 10850 10847 10844 10842 10839 10836 10834 10834 10835 10836 10838 10841 10846 10849 10853 10859 10863 10865 10870
10895 10896 10897 10898 10899 10899 10899 10898 10897 10895 10893 10891 10888 10885 10883 10880 10878 10875 10873 10871 10867 10864 10861 10859 10856 10852 10850 10847 10844 10842 10840 10837 10835 10833 10829 10827 10829 10830 10832 10834 10838 10843 10848 10851 10855 10860 10862
10893 10895 10896 10895 10895 10895 10894 10893 10892 10890 10887 10885 10882 10879 10876 10874 10872 10870 10868 10865 10861 10858 10856 10853 10850 10848 10844 10842 10839 10837 10835 10833 10829 10827 10825 10822 10822 10824 10826 10827 10830 10835 10838 10843 10847 10851 10854
10891 10892 10892 10892 10891 10890 10889 10888 10886 10885 10881 10877 10875 10872 10869 10867 10865 10863 10861 10858 10854 10851 10847 10845 10843 10840 10837 10834 10831 10830 10828 10826 10824 10820 10818 10817 10815 10817 10819 10820 10822 10825 10829 10834 10838 10842 10844
10888 10888 10889 10888 10887 10886 10883 10881 10879 10877 10875 10872 10868 10865 10862 10860 10857 10855 10852 10849 10845 10842 10838 10835 10832 10830 10828 10824 10821 10818 10818 10817 10816 10813 10809 10809 10808 10808 10812 10811 10814 10816 10819 10823 10828 10831 10835
10884 10884 10884 10883 10881 10879 10877 10875 10871 10868 10865 10863 10860 10858 10853 10851 10848 10845 10843 10839 10835 10832 10827 10825 10821 10818 10814 10812 10809 10806 10805 10804 10805 10805 10802 10800 10800 10801 10802 10805 10808 10809 10811 10814 10818 10822 10826
10880 10878 10877 10876 10874 10872 10870 10867 10863 10859 10856 10852 10850 10847 10845 10842 10837 10833 10830 10826 10822 10819 10814 10812 10808 10804 10801 10798 10796 10793 10790 10790 10793 10794 10792 10790 10790 10792 10792 10796 10799 10801 10803 10805 10808 10811 10816
10873 10872 10871 10869 10867 10864 10860 10857 10854 10849 10845 10842 10839 10835 10832 10828 10824 10820 10817 10811 10808 10803 10799 10795 10793 10788 10785 10783 10781 10778 10776 10774 10776 10779 10781 10779 10779 10782 10783 10785 10790 10793 10794 10796 10799 10803 10807
10866 10865 10862 10860 10857 10853 10850 10846 10843 10839 10835 10830 10826 10822 10817 10814 10809 10804 10800 10794 10789 10785 10781 10777 10776 10771 10769 10767 10764 10761 10762 10759 10762 10764 10767 10766 10768 10769 10772 10773 10777 10783 10784 10787 10789 10793 10797
10858 10856 10852 10849 10846 10842 10839 10835 10830 10827 10822 10817 10812 10807 10802 10798 10792 10787 10781 10776 10770 10766 10763 10760 10759 10755 10752 10752 10747 10745 10743 10742 10745 10748 10751 10753 10754 10757 10760 10760 10768 10773 10775 10780 10782 10784 10787
10848 10844 10841 10838 10834 10830 10826 10822 10817 10812 10808 10801 10795 10789 10784 10778 10775 10770 10765 10759 10754 10750 10744 10743 10742 10739 10735 10733 10729 10725 10721 10722 10728 10731 10735 10739 10740 10743 10746 10750 10756 10761 10765 10769 10773 10776 10778
10837 10833 10829 10826 10821 10817 10812 10807 10801 10795 10790 10784 10776 10770 10765 10760 10759 10751 10748 10742 10738 10734 10728 10725 10723 10720 10717 10714 10711 10705 10705 10705 10709 10715 10719 10724 10727 10731 10735 10738 10744 10749 10753 10758 10764 10764 10771
10824 10820 10816 10812 10807 10802 10796 10791 10784 10778 10771 10766 10759 10754 10747 10743 10739 10734 10728 10722 10718 10714 10710 10708 10703 10701 10697 10696 10694 10690 10689 10689 10694 10701 10706 10710 10714 10719 10720 10725 10730 10734 10737 10751 10751 10755 10760
10810 10806 10801 10797 10791 10785 10779 10772 10766 10759 10754 10749 10741 10733 10727 10719 10718 10708 10703 10699 10695 10691 10689 10689 10686 10682 10678 10677 10677 10674 10674 10676 10682 10687 10692 10698 10701 10706 10707 10711 10718 10718 10727 10734 10741 10749 10751
10796 10791 10785 10779 10773 10768 10760 10753 10747 10741 10734 10728 10721 10710 10701 10692 10691 10682 10677 10673 10670 10669 10668 10667 10667 10662 10661 10659 10658 10659 10660 10663 10667 10674 10676 10678 10687 10688 10692 10698 10699 10705 10712 10719 10729 10736 10742